Regional Weather Roundup
Issued by NWS

Home | Current Version | Previous Version | Graphics & Text | Print | Product List | Glossary On
Versions: 1 2 3 4 5 6 7 8 9 10 11 12 13 14 15 16 17 18 19 20 21 22 23 24 25 26 27 28 29 30 31 32 33 34 35 36 37 38 39 40 41 42 43 44 45 46 47 48 49 50
000
ASUS45 KSLC 301010
RWRUT

UTAH REGIONAL WEATHER ROUNDUP
NATIONAL WEATHER SERVICE SALT LAKE CITY UT
400 AM MDT TUE MAY 30 2017

UTZ001>011-023>025-301100-

NORTHERN UTAH

CITY           SKY/WX    TMP DP  RH WIND       PRES   REMARKS
BRIGHAM CITY   CLEAR     56  41  58 NW3       30.07R
HILL AFB       CLEAR     60  37  41 E17G25    30.08S
LOGAN          CLEAR     50  42  74 CALM      30.11R
OGDEN          CLEAR     58  39  49 S7        30.06R
SALT LAKE CITY CLEAR     63  42  46 SE7       30.05S
TOOELE VALLEY  CLEAR     52  39  62 S10       30.06S
WENDOVER       CLEAR     58  30  34 CALM      30.06S
HEBER CITY     CLEAR     41  36  81 CALM      30.17R
WEST JORDAN    CLEAR     53  45  72 SW5       30.09S

$$

UTZ011>015-024>027-301100-

CENTRAL/NORTHEAST UTAH

CITY           SKY/WX    TMP DP  RH WIND       PRES   REMARKS
PROVO AIRPORT  CLEAR     54  37  52 CALM      30.10R
MOAB/CANYONLAN CLEAR     61  26  26 VRB3      30.05R
DELTA          CLEAR     46  28  49 NW3       30.08S
PRICE          CLEAR     56  29  35 N6        30.15R
ROOSEVELT      CLEAR     45  37  76 SW6       30.19R
VERNAL         CLEAR     56  34  43 NW9       30.17R

$$

UTZ013>016-019>022-027-301100-

SOUTHERN UTAH

CITY           SKY/WX    TMP DP  RH WIND       PRES   REMARKS
BRYCE CANYON   PTCLDY    39  26  59 W12       30.26R WCI  32
CEDAR CITY     PTCLDY    48  26  42 CALM      30.10R
MILFORD        CLEAR     48  22  35 W7        30.07S
ST GEORGE      SUNNY     71  26  18 CALM      29.91R
HANKSVILLE     CLEAR     55  14  19 CALM      30.08R
BLANDING       CLEAR     59  21  22 N9        30.20S

$$

REGIONAL REPORTS     COLORADO/ARIZONA

CITY           SKY/WX    TMP DP  RH WIND       PRES   REMARKS
CRAIG, CO      CLEAR     38  33  82 CALM      30.24S
GRAND JUNCTION CLEAR     61  32  33 S7        30.11R
RIFLE, CO      CLEAR     48  31  51 SE3       30.20R
MONTROSE, CO   CLEAR     51  28  41 SE9       30.20R
CORTEZ, CO     CLEAR     39  32  76 CALM      30.17S
COLORADO CITY    N/A     70  28  21 E6        30.05S
PAGE, AZ       PTCLDY    66  24  20 SW5       30.02R
GRAND CANYON   PTCLDY    42  28  57 CALM      30.17S
KINGMAN, AZ    MOCLDY    65  19  17 E3        29.93R
FLAGSTAFF, AZ  PTCLDY    40  23  50 CALM      30.18F

$$

REGIONAL REPORTS    NEVADA/IDAHO/WYOMING

CITY           SKY/WX    TMP DP  RH WIND       PRES   REMARKS
LAS VEGAS, NV  PTCLDY    79  15   9 SW5       29.80S
ELY, NY        CLEAR     41  27  57 S10       30.17S
ELKO, NV       CLEAR     45  37  73 SW5       30.08S
POCATELLO, ID  CLEAR     45  38  76 NE5       30.11R
BURLEY, ID     CLEAR     51  45  79 N3        30.05R
FORT BRIDGER,    N/A     41  34  75 NW3       30.28S
EVANSTON, WY   CLOUDY    50  34  54 CALM      30.25R
ROCK SPRINGS,  CLEAR     48  33  56 E6        30.25S
KEMMERER, WY     N/A     43  32  65 N10       30.28S

$$



USA.gov is the U.S. government's official web portal to all federal, state and local government web resources and services.